TimeHST,TemperatureF,Dew PointF,Humidity,Sea Level PressureIn,VisibilityMPH,Wind Direction,Wind SpeedMPH,Gust SpeedMPH,PrecipitationIn,Events,Conditions,WindDirDegrees,DateUTC
12:57 AM,68.0,63.0,84,29.96,6.0,Calm,Calm,-,N/A,,Haze,0,2014-01-12 10:57:00
1:57 AM,68.0,64.0,87,29.94,6.0,Calm,Calm,-,N/A,,Mostly Cloudy,0,2014-01-12 11:57:00
2:19 AM,-9999,-9999,N/A,29.95,6.0,Calm,Calm,-,N/A,,Haze,0,2014-01-12 12:19:00
2:57 AM,69.8,66.0,88,29.93,6.0,Calm,Calm,-,N/A,,Overcast,0,2014-01-12 12:57:00
3:57 AM,69.8,66.0,88,29.93,7.0,Calm,Calm,-,N/A,,Overcast,0,2014-01-12 13:57:00
4:37 AM,-9999,-9999,N/A,29.94,5.0,Calm,Calm,-,N/A,,Haze,0,2014-01-12 14:37:00
4:44 AM,-9999,-9999,N/A,29.93,5.0,Calm,Calm,-,N/A,,Haze,0,2014-01-12 14:44:00
4:57 AM,-9999,-9999,N/A,29.93,5.0,Calm,Calm,-,N/A,,Haze,0,2014-01-12 14:57:00
5:25 AM,-9999,-9999,N/A,29.94,5.0,Calm,Calm,-,N/A,,Haze,0,2014-01-12 15:25:00
5:57 AM,-9999,-9999,N/A,29.94,6.0,Calm,Calm,-,N/A,,Haze,0,2014-01-12 15:57:00
6:57 AM,-9999,-9999,N/A,29.95,5.0,Calm,Calm,-,N/A,,Haze,0,2014-01-12 16:57:00
7:11 AM,-9999,-9999,N/A,29.96,5.0,Calm,Calm,-,N/A,,Haze,0,2014-01-12 17:11:00
7:57 AM,71.6,64.9,79,29.97,7.0,Calm,Calm,-,N/A,,Scattered Clouds,0,2014-01-12 17:57:00
8:57 AM,74.5,66.9,77,29.97,7.0,Calm,Calm,-,N/A,,Scattered Clouds,0,2014-01-12 18:57:00
9:04 AM,-9999,-9999,N/A,29.99,6.2,Calm,Calm,-,N/A,,Overcast,0,2014-01-12 19:04:00
9:19 AM,71.6,69.8,94,29.99,6.2,Calm,Calm,-,N/A,,Scattered Clouds,0,2014-01-12 19:19:00
9:57 AM,77.7,70.0,77,29.99,7.0,Calm,Calm,-,N/A,,Scattered Clouds,0,2014-01-12 19:57:00
10:57 AM,80.8,69.1,67,29.98,7.0,NNE,5.8,-,N/A,,Partly Cloudy,20,2014-01-12 20:57:00
11:57 AM,80.4,68.0,66,29.94,7.0,NNE,6.9,-,N/A,,Scattered Clouds,20,2014-01-12 21:57:00
12:57 PM,82.2,68.0,62,29.91,7.0,NE,4.6,-,N/A,,Partly Cloudy,50,2014-01-12 22:57:00
1:57 PM,81.9,68.0,63,29.90,7.0,Variable,4.6,-,N/A,,Partly Cloudy,0,2014-01-12 23:57:00
2:57 PM,83.5,68.0,59,29.90,7.0,East,8.1,-,N/A,,Mostly Cloudy,100,2014-01-13 00:57:00
3:57 PM,81.0,66.9,62,29.90,7.0,Variable,5.8,-,N/A,,Scattered Clouds,0,2014-01-13 01:57:00
4:57 PM,79.2,68.0,69,29.91,7.0,SSW,5.8,-,N/A,,Clear,210,2014-01-13 02:57:00
5:57 PM,78.1,66.9,68,29.92,8.0,SSE,5.8,-,N/A,,Scattered Clouds,160,2014-01-13 03:57:00
6:57 PM,76.5,63.0,63,29.94,7.0,SSE,3.5,-,N/A,,Partly Cloudy,150,2014-01-13 04:57:00
7:57 PM,76.1,64.9,68,29.96,7.0,Calm,Calm,-,N/A,,Scattered Clouds,0,2014-01-13 05:57:00
8:57 PM,74.3,64.9,72,29.96,7.0,Calm,Calm,-,N/A,,Scattered Clouds,0,2014-01-13 06:57:00
9:57 PM,74.3,64.0,70,29.96,7.0,Calm,Calm,-,N/A,,Clear,0,2014-01-13 07:57:00
10:57 PM,74.1,64.0,71,29.96,7.0,Calm,Calm,-,N/A,,Clear,0,2014-01-13 08:57:00
11:57 PM,74.1,64.0,71,29.96,7.0,Calm,Calm,-,N/A,,Clear,0,2014-01-13 09:57:00